Location: Newark
(43.9494°N, 6.8108°E)
Time: 01:52:17
(UTC+00:00)

N. Korean satellite - Visible Passes

Search period start: 24 October 2019 00:00
Search period end: 03 November 2019 00:00
Orbit: 455 x 508 km, 97.2° (Epoch: 23 October)

Date Brightness Start Highest point End Pass type
(mag) Time Alt. Az. Time Alt. Az. Time Alt. Az.
24 Oct 9.6 04:42:06 10° NE 04:44:54 21° E 04:47:43 10° SE visible
25 Oct 10.5 04:18:37 10° ENE 04:19:23 10° E 04:20:09 10° ESE visible
26 Oct 7.0 05:24:09 10° NNE 05:27:49 70° ESE 05:31:30 10° S visible
26 Oct 9.9 17:35:34 10° SW 17:37:49 16° W 17:40:06 10° NW visible
27 Oct 8.7 04:59:05 10° NNE 05:02:27 33° E 05:05:49 10° SSE visible
27 Oct 8.6 17:09:12 10° SSW 17:12:20 33° W 17:15:32 10° NNW visible
28 Oct 9.9 04:34:30 10° NE 04:36:59 17° E 04:39:28 10° SE visible
29 Oct 10.5 17:55:10 10° W 17:55:23 10° W 17:55:36 10° W visible
30 Oct 7.5 05:16:17 10° NNE 05:19:56 55° E 05:23:34 10° S visible
30 Oct 9.6 17:27:11 10° SW 17:29:50 20° W 17:32:31 10° NW visible
31 Oct 9.1 04:51:19 10° NE 04:54:31 27° E 04:57:43 10° SSE visible
31 Oct 8.0 17:01:04 10° S 17:04:22 41° W 17:07:45 10° NNW visible
01 Nov 10.1 04:26:58 10° ENE 04:29:00 14° E 04:31:03 10° SE visible
02 Nov 6.6 05:33:36 10° N 05:37:20 86° WNW 05:41:03 10° SSW visible
02 Nov 10.1 17:45:43 10° WSW 17:47:21 13° W 17:49:00 10° WNW visible
